TimeEET,TemperatureF,Dew PointF,Humidity,Sea Level PressureIn,VisibilityMPH,Wind Direction,Wind SpeedMPH,Gust SpeedMPH,PrecipitationIn,Events,Conditions,WindDirDegrees,DateUTC
12:00 AM,82.4,57.2,42,29.86,-9999.0,North,2.3,-,N/A,,Clear,350,2012-10-20 22:00:00
1:00 AM,82.4,59.0,45,29.83,-9999.0,NNW,3.5,-,N/A,,Clear,340,2012-10-20 23:00:00
2:00 AM,79,61,44,29.81,6,ENE,4.6,,,,Partly Cloudy,60,2012-10-21 00:00:00
2:00 AM,78.8,60.8,54,29.80,-9999.0,ENE,4.6,-,N/A,,Clear,60,2012-10-21 00:00:00
3:00 AM,75.2,60.8,61,29.80,-9999.0,West,2.3,-,N/A,,Clear,270,2012-10-21 01:00:00
4:00 AM,73.4,59.0,61,29.77,-9999.0,SSW,2.3,-,N/A,,Clear,210,2012-10-21 02:00:00
5:00 AM,75.2,55.4,50,29.77,-9999.0,SSE,6.9,-,N/A,,Clear,150,2012-10-21 03:00:00
6:00 AM,75.2,55.4,50,29.77,-9999.0,SSE,5.8,-,N/A,,Clear,160,2012-10-21 04:00:00
7:00 AM,78.8,57.2,47,29.80,-9999.0,SE,9.2,-,N/A,,Clear,140,2012-10-21 05:00:00
8:00 AM,79,59,40,29.81,6,NNE,3.5,,,,Partly Cloudy,20,2012-10-21 06:00:00
8:00 AM,78.8,59.0,51,29.80,6.2,NNE,3.5,-,N/A,,Scattered Clouds,20,2012-10-21 06:00:00
9:00 AM,82.4,62.6,51,29.83,6.2,NNW,4.6,-,N/A,,Scattered Clouds,340,2012-10-21 07:00:00
10:00 AM,87.8,62.6,43,29.83,6.2,NNW,3.5,-,N/A,,Scattered Clouds,330,2012-10-21 08:00:00
11:00 AM,91.4,59.0,34,29.83,6.2,NNW,3.5,-,N/A,,Scattered Clouds,340,2012-10-21 09:00:00
12:00 PM,93.2,59.0,32,29.80,6.2,West,6.9,-,N/A,,Scattered Clouds,280,2012-10-21 10:00:00
1:00 PM,93.2,57.2,30,29.77,-9999.0,West,5.8,-,N/A,,Clear,280,2012-10-21 11:00:00
2:00 PM,95,54,17,29.75,6,West,4.6,,,,,260,2012-10-21 12:00:00
2:00 PM,95.0,55.4,26,29.77,-9999.0,West,4.6,-,N/A,,Clear,260,2012-10-21 12:00:00
3:00 PM,95.0,55.4,26,29.77,-9999.0,West,6.9,-,N/A,,Clear,280,2012-10-21 13:00:00
4:00 PM,93.2,57.2,30,29.77,-9999.0,WNW,4.6,-,N/A,,Clear,290,2012-10-21 14:00:00
5:00 PM,89.6,57.2,33,29.77,-9999.0,NW,6.9,-,N/A,,Clear,310,2012-10-21 15:00:00
6:00 PM,87.8,55.4,33,29.80,-9999.0,NW,4.6,-,N/A,,Clear,320,2012-10-21 16:00:00
7:00 PM,84.2,57.2,40,29.80,-9999.0,NW,6.9,-,N/A,,Clear,310,2012-10-21 17:00:00
8:00 PM,83,55,27,29.83,6,NW,4.6,,,,,310,2012-10-21 18:00:00
8:00 PM,82.4,55.4,39,29.83,-9999.0,NW,4.6,-,N/A,,Clear,310,2012-10-21 18:00:00
9:00 PM,80.6,57.2,45,29.86,-9999.0,WSW,4.6,-,N/A,,Clear,240,2012-10-21 19:00:00
10:00 PM,80.6,57.2,45,29.86,-9999.0,SSW,2.3,-,N/A,,Clear,210,2012-10-21 20:00:00
11:00 PM,77.0,57.2,50,29.86,-9999.0,SW,2.3,-,N/A,,Clear,220,2012-10-21 21:00:00